Content
SEND FEEDBACK

Daily
Averages
Monthly
Summary
Mexico

LAGUNA BACALAR, QUINTANA ROO


Home > North America > Mexico > Quintana Roo
Elevation: 62 feet     Latitude: 18 45N     Longitude: 088 20W

WEATHER
 
SELECT A DAY
Number of Records: 124,869;   Date Range: 1/1/95 - 10/23/14
 
SHARE

PRINT THIS DATA

[ ← Previous Day ]
WEATHER ALMANAC - SEPTEMBER 25, 2013
[ Next Day → ]
[ °C ]   °F
Weather ElementAverageHighLow
Temperature86.3 °F92 °F (3:50 pm)80 °F (6:45 am)
Dewpoint76.7 °F79 °F (9:50 am)71.6 °F (6:45 am)
Humidity71.4 %93 % (6:45 am)59 % (12:50 pm)
Barometer29.83 in29.87 in (9:50 am)29.77 in (4:50 pm)
Wind Speed8.4 mph17.3 mph (12:40 pm)
Weather ElementAverage
Visibility6.6 mi
Wind DirectionENE (79.5 °)

Weather ElementTotal
Precipitation---
Cooling Degree Days21 (Base 65)
Growing Degree Days36 (Base 50)
Averaged from 21 records on September 25, 2013
WEATHER CONDITIONS BREAKOUT
WIND DIRECTION BREAKOUT
WEATHER BY HOUR - SEPTEMBER 25, 2013
[ °C ]   °F
Local TimeTemperatureDewpointHumidityBarometerVisibilityWind DirectionWind SpeedGust SpeedPrecipitationEventsConditions
3:45 AM84.0 °F78.0 °F79 %29.83 in5.0 miSE (140°)8.9 mphMostly Cloudy
6:45 AM80.0 °F78.0 °F93 %29.83 in6.0 miESE (110°)6.7 mphRainRain
6:45 AM80.6 °F71.6 °F74 %29.82 in7.0 miCalmScattered Clouds
7:44 AM82.4 °F73.4 °F74 %29.83 in7.0 miCalmScattered Clouds
8:40 AM84.2 °F73.4 °F70 %29.84 in7.0 miCalmScattered Clouds
9:40 AM86.0 °F75.2 °F70 %29.86 in7.0 miEast (90°)9.2 mphScattered Clouds
9:50 AM88.0 °F79.0 °F68 %29.87 in6.0 miEast (90°)6.7 mphRainLight Freezing Drizzle
10:40 AM86.0 °F75.2 °F70 %29.86 in7.0 miEast (90°)11.5 mphScattered Clouds
11:40 AM87.8 °F77.0 °F70 %29.86 in7.0 miCalmScattered Clouds
11:45 AM87.8 °F77.0 °F70 %29.86 in7.0 miCalmScattered Clouds
12:40 PM87.8 °F77.0 °F70 %29.85 in7.0 miEast (100°)17.3 mphScattered Clouds
12:50 PM91.0 °F78.0 °F59 %29.86 in6.0 miEast (90°)8.9 mphScattered Clouds
1:40 PM87.8 °F77.0 °F70 %29.82 in7.0 miESE (120°)5.8 mphScattered Clouds
2:40 PM87.8 °F77.0 °F70 %29.80 in7.0 miESE (120°)17.3 mphScattered Clouds
3:50 PM92.0 °F79.0 °F59 %29.81 in6.0 miEast (100°)6.7 mphScattered Clouds
3:50 PM87.8 °F77.0 °F70 %29.79 in7.0 miESE (120°)17.3 mphScattered Clouds
4:50 PM87.8 °F77.0 °F70 %29.77 in7.0 miESE (110°)17.3 mphScattered Clouds
5:50 PM87.8 °F77.0 °F70 %29.77 in7.0 miESE (120°)17.3 mphScattered Clouds
6:50 PM86.0 °F78.0 °F71 %29.81 in6.0 miEast (90°)4.5 mphPartly Cloudy
6:50 PM86.0 °F77.0 °F74 %29.78 in7.0 miEast (90°)17.3 mphScattered Clouds
9:45 PM84.0 °F78.0 °F78 %29.87 in5.0 miEast (90°)4.5 mphScattered Clouds
Hourly data recorded from MMCM, located miles away from Laguna Bacalar, Quintana Roo







STORIES FROM OUR PARTNERS